Terminal Aerodrome Forecast
Issued by NWS Houston/Galveston, TX

Home | Current Version | Previous Version | Text Only | Print | Product List | Glossary On
Versions: 1 2 3 4 5 6 7 8 9 10 11 12 13 14 15 16 17 18 19 20 21 22 23 24 25 26 27 28 29 30 31 32 33 34 35 36 37 38 39 40 41 42 43 44 45 46 47 48 49 50
000
FTUS44 KHGX 201457 AAA
TAFGLS
TAF AMD
KGLS 201457Z 2015/2112 32017G25KT 3SM RA BR VCSH FEW007 BKN014
      OVC023
      TEMPO 2016/2019 35011KT -RA BKN030 OVC080
     FM201900 36006KT P6SM VCSH SCT010 BKN050
     FM202200 36005KT P6SM BKN100=

USA.gov is the U.S. government's official web portal to all federal, state and local government web resources and services.